Terminal Aerodrome Forecast
Issued by NWS

Home | Current Version | Previous Version | Text Only | Print | Product List | Glossary On
Versions: 1 2 3 4 5 6 7 8 9 10 11 12 13
000
FTUS44 KEPZ 242300 RRA
TAFTCS
TAF
KTCS 242336Z 2500/2524 30006KT P6SM FEW250
     FM250300 29006KT P6SM SCT250
     FM251800 22018G28KT P6SM SCT250=

USA.gov is the U.S. government's official web portal to all federal, state and local government web resources and services.